Погода в Ургенче

Погода в Ургенче : погода сейчас, прогноз погоды и архив. Всё, что Вы хотите узнать о погоде в Ургенче!

Поиск расширенной информации на нашем сайте:

Другие новости

Новости СМИ2

Главная страница сайта

Новости сайта

03.07.2017

Напоминаем, что на нашем специализированном сайте Метеоцентр.Азия вы можете получить высокодетализированные автоматические прогнозы погоды по пунктам России, СНГ и мира в авиационном формате (включающие направление и скорость ветра, видимость, явления погоды, количество и форму облачности, нижнюю и верхнюю границу облачности).

Рекомендуем: туроператоры по абхазии

Погода в Ургенче - сегодня

Время (UTC), дата Ветер
(°,м/с) 
Видим.   Явления Облачность Т
(°С)
Тd
(°С)
f(%) Тe
(°С)
Pmin
(гПа)
dP
(гПа)
Po
(мм)
O2
(г/м3)
Тmin Tmax R s Состояние
почвы
09 13.01.18 030 (СВ) 10 км    8/0 верхняя 
[Ci fib]
+2.3 -6.4 53 1023.6  0.1  758  304           
12 13.01.18 030 (СВ) 10 км    8/0 верхняя 
[Ci fib]
+1.3 -8.4 48 -1  1024.9  1.2  759  305    +0.5       
15 13.01.18 030 (СВ) 10 км    8/0 средняя 
[Ac trans]
-1.3 -9 56 -5  1027.3  2.2  761  309    +2.7       
18 13.01.18 040 (СВ) 10 км    9/0 средняя 
[Ac trans]
-1.7 -8.2 61 -4  1028.3  761  310    +2.7       
21 13.01.18 040 (СВ) 10 км    9/0 средняя 
[Ac trans]
-2.5 -8 66 -6  1028.2  -0.1  761  310           
00 14.01.18 050 (СВ) 10 км    9/0 средняя 
[Ac trans]
-3.2 -7.5 72 -5  1028.2  761  311           
03 14.01.18 040 (СВ) 10 км    9/0 средняя 
[Ac trans]
-3.9 -7.2 78 -5  1030  0.7  763  313  -4.2         
06 14.01.18 030 (СВ) 10 км    9/9 960 м 
[Sc]
-2.9 -7.8 69 -5  1030.9  0.9  763  312  -4.2         
09 14.01.18 030 (СВ) 10 км    9/9 840 м 
[Sc]
-2.3 -7.4 68 -4  1029.3  -1.5  762  311           
12 14.01.18 030 (СВ) 10 км    9/9 840 м 
[Sc]
-3.1 -7.3 73 -7  1029.4  0.1  762  311           
15 14.01.18 040 (СВ) 10 км    9/9 900 м 
[Sc]
-3.7 -7.4 75 -7  1030.1  0.6  763  312    -2.2       
18 14.01.18 030 (СВ) 10 км    9/9 1230 м 
[Sc]
-3.7 -8.5 69 -8  1030.5  0.4  763  313    -2.2       
21 14.01.18 030 (СВ) 10 км    9/9 1500 м 
[Sc]
-4.5 -8.4 74 -8  1030.5  763  314           
00 15.01.18 030 (СВ) 10 км    9/9 1500 м 
[Sc]
-6.4 -9.6 78 -11  1030.4  -0.2  763  316           
03 15.01.18 040 (СВ) 10 км    9/9 2000 м 
[Sc]
-7.1 -11.4 71 -11  1031  0.5  763  317  -7.2         
06 15.01.18 040 (СВ) 10 км    8/4 1500 м верхняя 
[Sc|Ci fib]
-7.1 -10.9 74 -12  1031.6  0.6  764  317  -7.2         
09 15.01.18 030 (СВ) 10 км    10/0 верхняя 
[Cs]
-4.6 -10.7 62 -9  1029.5  -1.9  762  313           
12 15.01.18 030 (СВ) 10 км    10/0 верхняя 
[Cs]
-4.6 -10.7 62 -9  1029.5  -1.9  762  313           
15 15.01.18 010 (С) 10 км    9/0 средняя 
[Ac As]
-6.5 -14.1 55 -12  1031.4  764  316    -3.8       
18 15.01.18 020 (С) 10 км    4/0 средняя 
[Ac trans]
-9.5 -16.5 57 -13  1032  0.4  764  320    -3.8       
21 15.01.18 020 (С) 10 км    3/0 средняя 
[Ac trans]
-10.6 -17.9 55 -14  1031.8  -0.2  764  322           
00 16.01.18 020 (С) 10 км    3/0 средняя 
[Ac trans]
-11.8 -18 60 -15  1032.1  0.2  764  323           
03 16.01.18 020 (С) 10 км    8/0 средняя 
[Ac trans]
-11.7 -17.9 60 -16  1032.6  0.5  764  323  -11.9         
06 16.01.18 030 (СВ) 10 км    8/0 средняя 
[Ac trans]
-9.1 -13.6 70 -14  1033.1  0.7  765  320  -11.9         
09 16.01.18 030 (СВ) 10 км    3/0 средняя 
[Ac trans]
-4.4 -14.1 47 -8  1031.2  -1.7  764  314           
Время (UTC), дата Ветер
(°,м/с) 
Видим.   Явления Облачность Т
(°С)
Тd
(°С)
f(%) Тe
(°С)
Pmin
(гПа)
dP
(гПа)
Po
(мм)
O2
(г/м3)
Тmin Tmax R s Состояние
почвы

Для получения пояснительной информации подведите курсор к названию столбца.

ПОГОДА в Ургенче - архив

Всё, что Вы хотите узнать о погоде в Ургенче - удобно и подробно!

Выберите нужную дату (начиная с 1 января 2015* года) и нажмите кнопку "Найти".
Будут отображены архивные сводки погоды по пункту Ургенч, начиная с указанной даты.


Отображать данные в формате CSV (для использования в таблицах Excel)


Внимание! Наш архив погоды предназначен исключительно для личного некоммерческого использования в познавательных целях. Если Вам необходимы официальные справки о состоянии погоды (для производственных, юридических, коммерческих и т.п. целей), обращайтесь в органы Росгидромета.

*Примечание: данная дата относится к архиву по метеостанциям СССР (Россия, СНГ, Балтия).
Архив по метеостанциям Зарубежной Европы и Азии (кроме Китая) хранится 10 дней, по другим регионам земного шара (Китай, Африка, Америка, Австралия, Океания) - 1 день.

Ургенч - район местоположения метеостанции


Название, широта, долгота, высота метеостанции:
Ургенч 41.6°ш. 60.6°д. 101 м над ур. моря [Узбекистан]

Дополнительная информация

В oтличие oт бoльшинства пoгoдных сайтoв мы публикуем пoдрoбную метеoинфoрмацию в детальнoм прoфессиoнальнoм фoрмате.

Характеристики температуры и влажнoсти вoздуха измеряются на высoте 2 м в тени вдали oт зданий и деревьев.
Скoрoсть ветра измеряется на высoте 10 м (на урoвне рoста челoвека скoрoсть ветра ниже в 1.5-2 раза). Если метеoстанция нахoдится в гoрoде или в лесу, тo скoрoсть ветра занижена на 2-4 м/с пo сравнению с oткрытым местoм. Скoрoсть ветра над акватoриями крупных рек и oзёр, а также на вершинах хoлмoв на 2-5 м/с выше, чем в oбычных услoвиях.
Атмoсфернoе давление в разных тoчках местнoсти мoжет значительнo oтличаться oт давления на метеoстанции, в зависимoсти oт услoвий рельефа (при пoдъёме на 10 м давление пoнижается примернo на 1 мм рт.ст.).